User: anonymous   Login
Location: Unspecified
(0.0000°N, 0.0000°E)
Time: 14:52:47
(UTC+00:00)
Language:

JAS-1B - Orbit

View from above orbital plane
View from above orbital plane
View from above satellite
View from above satellite

Ground track
Ground track

The orbit data is extracted from the following two-line orbital elements,

1 20480U 90013C   17352.22061495 -.00000008  00000-0  59959-4 0  9994
2 20480  99.0736  91.1360 0539816 334.4737  23.0579 12.83417522305327
Epoch (UTC): 18 December 2017 05:17:41
Eccentricity: 0.0539816
inclination: 99.0736°
perigee height: 912 km
apogee height: 1744 km
right ascension of ascending node: 91.1360°
argument of perigee: 334.4737°
revolutions per day: 12.83417522
mean anomaly at epoch: 23.0579°
orbit number at epoch: 30532

The dashed part of the orbit path shows where the satellite is in the earth's shadow,  

DLR